CZ-2D DEB

Satellite information

Favourite Embed

Satellite Type and Status

DEBRISIN ORBIT

Key statistics

Satellite CZ-2D DEB at a glance.

Uptime

4916

Days in orbit

Revolutions

≈ 14.5

Per day

Orbit

SSO

Sun Synchronous Orbit

Inclination

98.3

Latest

Satellite identification and parameters

Extended collection of information and parameters for CZ-2D DEB.

Object identification

Identified? True

Debris? True

Object name: CZ-2D DEB

International designator: 2011-068D

Object number (NORAD): 38176

Object ID (CCSDS): 38176

Country: PEOPLES REPUBLIC OF CHINA (PRC)

Current information (Y/N): Y

RCS size: SMALL

Orbital parameters

Period: 99.472 minutes

Inclination: 98.2834 deg

SMA: 7111.496 km

Apoapsis: 809.007 km

Periapsis: 657.714 km

RAAN: 129.4136 deg

Eccentricy: 0.0106372

Argument of periapsis: 330.982 deg

Mean anomaly: 28.5485 deg

Mean motion: 14.47642583 rev/day

Mean motion (dot): 0.00004178 rev/day2

B* drag term: 0.0010676 1/REarth

Two-line elements (TLE)

Creation date: May 4, 2025, 2:26 a.m.

Reference frame: TEME

Reference center: EARTH

Epoch: May 3, 2025, 11:07 p.m. UTC

TLE line 0: 0 CZ-2D DEB

TLE line 1: 1 38176U 11068D 25123.96353906 .00004178 00000-0 10676-2 0 9997

TLE line 2: 2 38176 98.2834 129.4136 0106372 330.9820 28.5485 14.47642583702488

Live tracking on map

Real-time ground track for satellite CZ-2D DEB.

In-orbit conjunctions

A list of the most updated potential collisions computed for object CZ-2D DEB.

Target Orbit TCA Probability of collision Miss distance Type
IRIDIUM 24 LEO 2025-01-03 00:48:05 0.0003401523 130.0 (m) PAYLOAD
IRIDIUM 33 DEB LEO 2024-12-20 11:31:42 0.0001473251 497.0 (m) DEBRIS
DELTA 1 DEB SSO 2024-09-10 16:20:20 0.000140115 43.0 (m) DEBRIS
SL-8 R/B LEO 2024-08-29 23:30:56 0.0001127681 842.0 (m) ROCKET BODY

Associated space launch

CZ-2D DEB was lifted into orbit during the mission ‘Long March 2D | Shiyan Weixing 4 & Chuang Xin 1C’, on board a Long March 2D space rocket.

The launch took place on Nov. 20, 2011, 12:15 a.m. from Launch Area 4 (SLS-2 / 603).

For more information about the launch, click the button.

Launch to space Long March 2D | Shiyan Weixing 4 & Chuang Xin 1C
Long March 2D | Shiyan Weixing 4 & Chuang Xin 1C

Agency: N/A

Status: Launch Successful

Launch date: Nov. 20, 2011, 12:15 a.m. UTC

Rocket: Long March 2D

Launch pad: Launch Area 4 (SLS-2 / 603)

Location: Jiuquan Satellite Launch Center, People's Republic of China

...

Latest news about this satellite

There are no fresh news available about this satellite. Check back as we update our databases every day.


Newsletter sign-up

Weekly statistics, charts and insights to help you stay on top of the space industry.